DIAMANT R/B, 2017

Orbit data source: Space-Track

DIAMANT R/B, 2017 is space debris in LEO originally from a launch on Thu, 17 Feb 1966 UTC launched from the Hamma Guira Space Track Range (HGSTR). Debris objects in space refer to the collection of defunct objects orbiting the Earth. Examples of debris include non-operational satellites, rocket bodies, and fragments generated from explosions, collisions, or faulty payload assembly.

Loading next visibility...
Identifier
2017, 1966-013B
Orbit
LEO
Last TLE update
8 hours ago
Origin
Manufacturer
Sud
Mission
Spacecraft
Bus & Motor
RUBIS, Unknown motor
Mass
65 kg wet, 65 kg dry
Launch date (UTC)
1966-02-17 (59 years ago)
Launch vehicle
Unknown
Launch site
Hamma Guira Space Track Range (HGSTR)
Object type
Payload
Rocket body
Debris
Shape & HBR
Cyl, 2.1 m
Radar Cross Section
1.347 m², Medium (>0.1 m² and < 1m²)

Expand to show TLE details & history

TLE from 8 hours ago
0 DIAMANT R/B
1 02017U 66013B   25181.80374130  .00000615  00000-0  16736-3 0  9997
2 02017  34.0604 208.9425 1041971  80.6151 291.0574 12.91937236724287
Epoch: 2025-06-30T19:17Z
TLE epoch observation values (Epoch: 2025-06-30T19:17:23.248Z)
Latitude
-0.00001°
Longitude
0.48732°
Altitude
1,081.864 km
Speed
7.413 km/s
True Right ascension
13h 55m 46s
True Declination
0° 00' 00"
Sunlit
Object was in daylight at epoch
Visualization orbit readout
Latitude
-19.32208°
Longitude
-149.98689°
Altitude
1,795.408 km
Speed
6.755 km/s
Apparent Right ascension
03h 40m 49s
Apparent Declination
-28° 15' 18"
Sunlit
Object is in daylight
Visualization observer readout
Local Sidereal Time
15:20:16
Azimuth
338.457° N
Elevation
-77.593°
Doppler factor
1
Orbital elements
Apogee altitude
2,096.661 km
Perigee altitude
497.219 km
Semi-major axis
7,675.077 km
Eccentricity
0.1042
Inclination
34.0604°
RAAN
208.9425°
Arg. of periapsis
80.6151°
True anomaly
Unknown
Mean anomaly
291.0574°
Eccentric anomaly
Unknown
Mean motion
3.22789 °/min
Orbital period
111.53 mins
BSTAR
0.00016736
Loading maneuver chart data...
Loading SW <> Apogee altitude chart data...

DIAMANT R/B Visibility forecast

Observer location: undefined°, undefined°

Span
Click to sort rows by Start time (UTC) header in descending order
Start Az.
Max El. time (UTC)
Max El. Az.
Max El.
End time (UTC)
End Az.
5 mins2025-07-01 06:42:55.922Z214.724° SW2025-07-01 06:44:55.922Z170.864° S23.999°2025-07-01 06:47:55.922Z111.687° ESE
5 mins2025-07-01 08:39:55.922Z238.001° WSW2025-07-01 08:41:55.922Z189.067° SSW28.363°2025-07-01 08:44:55.922Z124.185° SE
4 mins2025-07-01 10:37:55.922Z221.37° SW2025-07-01 10:38:55.922Z203.054° SW18.253°2025-07-01 10:41:55.922Z157.74° S
|